This demonstration page uses our WeatherBlox Daily Observations layout. Learn more.

41.55636, -103.73856

Hourly Observations for January 25, 2019

Temp ( °F °C ) Dew Point ( °F °C ) Humidity (%) Winds ( mph kmh ) Pressure ( in mb ) Visibility ( mi km ) Precip ( " mm )
12:53 am 00:53 Clear 8 -13.3 6 -14.4 92 92 NNW 6 9 30.24 1024 10 16.09344 0 0
1:53 am 01:53 Clear 10 -12.2 8 -13.3 92 92 NW 7 11 30.24 1024 10 16.09344 0 0
2:53 am 02:53 Clear 12 -11.1 9 -12.8 87 87 W 10 17 30.21 1023 10 16.09344 0 0
3:53 am 03:53 Clear 9 -12.8 6 -14.4 88 88 NNW 7 11 30.21 1023 10 16.09344 0 0
4:53 am 04:53 Mostly Clear 9 -12.8 7 -13.9 92 92 NW 7 11 30.24 1024 10 16.09344 0 0
5:53 am 05:53 Clear 8 -13.3 5 -15 87 87 N 5 7 30.24 1024 10 16.09344 0 0
6:53 am 06:53 Mostly Clear 6 -14.4 4 -15.6 91 91 NW 6 9 30.27 1025 10 16.09344 0 0
7:53 am 07:53 Cloudy 14 -10 11 -11.7 88 88 NNW 5 7 30.27 1025 10 16.09344 0 0
8:53 am 08:53 Cloudy 22 -5.6 16 -8.9 78 78 WNW 12 19 30.24 1024 10 16.09344 0 0
9:53 am 09:53 Mostly Cloudy 28 -2.2 19 -7.2 69 69 W 13 20 30.21 1023 10 16.09344 0 0
10:53 am 10:53 Cloudy 33 0.6 21 -6.1 61 61 W 15 24 30.21 1023 10 16.09344 0 0
11:53 am 11:53 Sunny 36 2.2 22 -5.6 57 57 W 17 28 30.15 1021 10 16.09344 0 0
12:53 pm 12:53 Sunny 38 3.3 24 -4.4 57 57 W 17 28 30.15 1021 10 16.09344 0 0
1:53 pm 13:53 Mostly Sunny 38 3.3 22 -5.6 52 52 W 21 33 30.12 1020 10 16.09344 0 0
2:53 pm 14:53 Sunny 38 3.3 23 -5 55 55 W 18 30 30.12 1020 10 16.09344 0 0
3:53 pm 15:53 Cloudy 38 3.3 23 -5 55 55 W 16 26 30.12 1020 10 16.09344 0 0
4:53 pm 16:53 Sunny 34 1.1 21 -6.1 59 59 WNW 13 20 30.15 1021 10 16.09344 0 0
5:53 pm 17:53 Clear 30 -1.1 21 -6.1 69 69 WNW 9 15 30.18 1022 10 16.09344 0 0
6:53 pm 18:53 Clear 25 -3.9 19 -7.2 78 78 NW 7 11 30.21 1023 10 16.09344 0 0
7:53 pm 19:53 Clear 21 -6.1 17 -8.3 85 85 NW 6 9 30.21 1023 10 16.09344 0 0
8:53 pm 20:53 Clear 19 -7.2 16 -8.9 88 88 WNW 3 6 30.21 1023 10 16.09344 0 0
9:53 pm 21:53 Clear 20 -6.7 15 -9.4 81 81 W 8 13 30.18 1022 10 16.09344 0 0
10:53 pm 22:53 Mostly Clear 16 -8.9 13 -10.6 88 88 NW 6 9 30.18 1022 10 16.09344 0 0
11:53 pm 23:53 Clear 20 -6.7 15 -9.4 81 81 WNW 8 13 30.18 1022 10 16.09344 0 0

Powered by AerisWeather